Location: Anjeux
(47.8815°N, 6.2076°E)
Time: 06:29:28
(UTC+00:00)

ADEOS II - Visible Passes

Search period start: 21 June 2021 00:00
Search period end: 01 July 2021 00:00
Orbit: 799 x 801 km, 98.6° (Epoch: 20 June)

Date Brightness Start Highest point End Pass type
(mag) Time Alt. Az. Time Alt. Az. Time Alt. Az.
21 Jun 3.5 01:00:58 10° NE 01:05:34 30° E 01:09:53 11° SSE visible
21 Jun 2.7 02:40:26 10° N 02:45:24 43° WNW 02:50:19 10° SW visible
22 Jun 4.2 00:35:06 10° NE 00:38:40 18° E 00:42:14 10° SE visible
22 Jun 2.2 02:13:38 10° N 02:18:53 70° WNW 02:23:51 11° SSW visible
23 Jun 4.6 00:10:52 10° ENE 00:11:40 10° E 00:12:27 10° E visible
23 Jun 2.2 01:47:00 10° NNE 01:52:18 72° ESE 01:56:54 14° S visible
24 Jun 3.0 01:20:33 10° NNE 01:25:34 43° E 01:29:57 13° SSE visible
25 Jun 3.7 00:54:21 10° NE 00:58:46 26° E 01:03:00 11° SSE visible
25 Jun 2.6 02:33:38 10° N 02:38:41 48° WNW 02:43:43 10° SW visible
26 Jun 4.3 00:28:40 10° NE 00:31:51 16° E 00:35:00 10° SE visible
26 Jun 2.1 02:06:52 10° NNE 02:12:09 79° WNW 02:16:59 12° SSW visible
27 Jun 2.4 01:40:17 10° NNE 01:45:32 64° ESE 01:50:01 14° S visible
28 Jun 3.1 01:13:53 10° NNE 01:18:47 38° E 01:23:03 13° SSE visible
28 Jun 3.1 02:53:43 10° N 02:58:25 34° WNW 03:03:07 10° SW visible
29 Jun 3.9 00:47:47 10° NE 00:51:57 23° E 00:56:06 10° SE visible
29 Jun 2.4 02:26:50 10° N 02:31:58 55° WNW 02:37:02 10° SW visible
30 Jun 4.4 00:22:19 10° NE 00:25:00 14° E 00:27:40 10° ESE visible
30 Jun 2.1 02:00:07 10° NNE 02:05:25 89° WNW 02:10:04 13° SSW visible
